Regional Weather Roundup
Issued by NWS

Home | Current Version | Previous Version | Graphics & Text | Print | Product List | Glossary On
Versions: 1 2 3 4 5 6 7 8 9 10 11 12 13 14 15 16 17 18 19 20 21 22 23 24 25 26 27 28 29 30 31 32 33 34 35 36 37 38 39 40 41 42 43 44 45 46 47 48 49 50
000
ASUS43 KOAX 262102
RWRNE

WEATHER ROUNDUP FOR NEBRASKA
NATIONAL WEATHER SERVICE OMAHA NE
400 PM CDT MON SEP 26 2016

NOTES: SATELLITE DATA IS BEING USED TO AUGMENT CLOUD COVER ABOVE
       12000 FEET.
       "FAIR" INDICATES FEW OR NO CLOUDS BELOW 12,000 FEET WITH NO
       SIGNIFICANT WEATHER AND/OR OBSTRUCTIONS TO VISIBILITY.

  * THESE STATIONS DO NOT REPORT WEATHER SUCH AS RAIN...SNOW OR FOG.

NEZ001>004-019>022-054>056-262200-
NEBRASKA PANHANDLE

CITY           SKY/WX    TMP DP  RH WIND       PRES   REMARKS
SCOTTSBLUFF    SUNNY     76  39  26 NW9       30.27F
ALLIANCE       SUNNY     73  40  30 NW13      30.24F
CHADRON        SUNNY     73  39  29 NW22G30   30.23F
KIMBALL        SUNNY     72  41  32 N7        30.32F
SIDNEY         LGT RAIN  74  38  27 N10       30.30F
$$

NEZ057>060-069>072-079>082-262200-
SOUTHWEST NEBRASKA

CITY           SKY/WX    TMP DP  RH WIND       PRES   REMARKS
NORTH PLATTE   SUNNY     78  41  26 NW15      30.20F
IMPERIAL       SUNNY     78  34  20 N18G26    30.23F
LEXINGTON      SUNNY     77  39  25 NW10G16   30.18F
MCCOOK         SUNNY     80  39  23 NW12G21   30.19F
OGALLALA       SUNNY     78  37  22 N10G18    30.23F
$$

NEZ005>010-023>029-035>040-094-262200-
NORTH CENTRAL NEBRASKA

CITY           SKY/WX    TMP DP  RH WIND       PRES   REMARKS
VALENTINE      SUNNY     75  36  24 N17G23    30.18F
AINSWORTH      SUNNY     73  40  30 NW16G28   30.18F
BROKEN BOW     SUNNY     77  37  23 NW14G24   30.17F
O`NEILL        SUNNY     74  32  21 NW17G26   30.15F
ORD            SUNNY     76  37  24 NW16G25   30.14F
THEDFORD       SUNNY     76  40  27 NW15G22   30.20F
$$

NEZ041-046>049-061>064-073>077-083>087-262200-
SOUTH CENTRAL NEBRASKA

CITY           SKY/WX    TMP DP  RH WIND       PRES   REMARKS
GRAND ISLAND   SUNNY     78  38  23 NW13      30.15F
AURORA         SUNNY     76  37  23 W15       30.15F
HASTINGS       SUNNY     76  35  22 W17G24    30.18F
HEBRON         SUNNY     75  35  23 NW9       30.17F
HOLDREGE       SUNNY     76  33  20 NW8G16    30.19F
KEARNEY *      SUNNY     79  36  21 W14       30.16F
YORK           SUNNY     75  37  25 W14G20    30.15F
$$

NEZ011>018-030>034-042>045-262200-
NORTHEAST NEBRASKA

CITY           SKY/WX    TMP DP  RH WIND       PRES   REMARKS
NORFOLK        SUNNY     76  36  23 NW12      30.11F
ALBION         SUNNY     74  38  26 NW16      30.13F
BLAIR          SUNNY     74  40  29 NW8G20    30.11F
FREMONT        SUNNY     76  40  27 W15       30.12F
TEKAMAH        MOSUNNY   77  40  26 NW12      30.10F
WAYNE          SUNNY     74  42  31 NW14G25   30.11F
$$

NEZ050>053-065>068-078-088>093-262200-
SOUTHEAST NEBRASKA

CITY           SKY/WX    TMP DP  RH WIND       PRES   REMARKS
LINCOLN        SUNNY     78  37  22 W17       30.14F
OMAHA EPPLEY   MOSUNNY   77  41  27 NW15      30.11F
BEATRICE       SUNNY     76  41  28 NW10      30.15F
FALLS CITY     SUNNY     75  44  33 W14G26    30.14F
NEBRASKA CITY  SUNNY     74  22  14 NW12G18   30.14F
PLATTSMOUTH    SUNNY     74  29  19 W13G24    30.13F
$$

NEZ044-045-051>053-067-262200-
OMAHA AREA

CITY           SKY/WX    TMP DP  RH WIND       PRES   REMARKS
OMAHA EPPLEY   MOSUNNY   77  41  27 NW15      30.11F
BLAIR          SUNNY     74  40  29 NW8G20    30.11F
FREMONT        SUNNY     76  40  27 W15       30.12F
MILLARD        SUNNY     75  43  31 W12       30.11F
OFFUTT AFB     SUNNY     75  41  30 W14       30.11F
PLATTSMOUTH    SUNNY     74  29  19 W13G24    30.13F
WAHOO          FAIR      76  36  23 W12G22    30.13F
$$




USA.gov is the U.S. government's official web portal to all federal, state and local government web resources and services.